Temperature
18 18 17 17 17 17 17 17 17 17 17 16 16 15 15 14 14 14 13 13 12 12 12 12 12 12 13 13 13 13 13 14 14 14 15 15 16 16 16 15 16 16 15
18 18 17 17 17 17 17 17 17 17 16 16 16 15 15 14 14 13 12 12 12 12 12 11 12 12 12 12 12 12 13 13 14 14 14 16 16 16 16 15 15 15 15
19 18 18 18 17 17 17 17 17 17 16 16 15 15 14 14 14 13 12 12 11 11 11 11 11 11 12 12 12 12 12 13 13 13 14 15 16 15 16 15 15 15 15
20 19 19 18 18 18 17 17 17 17 16 16 15 15 14 14 13 13 12 11 11 11 11 10 10 11 11 11 11 12 11 12 13 13 13 13 13 13 15 15 15 15 15
21 20 20 19 19 18 18 17 17 17 16 16 15 14 14 14 13 12 12 11 11 11 10 10 10 10 10 10 10 10 11 11 12 12 13 13 13 13 13 14 14 14 14
21 20 20 19 19 18 18 17 17 17 16 16 15 14 13 13 12 12 11 11 12 11 11 10 10 10 10 10 10 10 10 10 10 11 12 12 13 13 13 14 14 14 14
22 21 20 20 19 18 18 17 17 16 16 15 14 14 13 12 12 11 12 11 12 11 11 10 9 10 9 9 9 9 9 10 10 10 11 11 12 12 12 13 13 14 14
22 22 21 20 19 18 18 17 17 16 15 15 14 13 13 12 12 11 11 11 11 11 10 10 9 9 9 9 9 9 9 9 9 10 10 10 11 11 12 12 12 13 14
23 22 21 20 19 18 18 17 16 16 15 14 13 13 12 12 11 11 11 11 10 10 10 10 9 9 9 9 9 9 9 9 9 9 10 10 10 11 11 11 11 12 13
23 22 21 20 19 18 17 17 16 15 15 14 13 13 12 11 11 11 10 10 10 10 10 10 9 9 9 9 9 9 9 9 9 9 9 9 10 10 10 10 11 11 12
23 22 21 20 19 18 17 16 16 15 14 14 13 12 12 11 11 11 10 10 10 10 10 9 9 9 9 9 8 8 8 8 8 8 9 9 8 9 10 10 10 11 11
23 21 20 19 18 18 17 16 15 15 14 13 13 12 12 11 11 11 10 10 10 10 10 9 9 9 9 9 8 8 8 8 8 8 8 8 9 9 9 9 10 10 10
22 21 20 19 18 18 17 16 16 15 14 14 13 12 12 11 11 10 10 10 10 10 10 9 9 9 9 9 9 8 8 8 8 8 8 8 8 8 9 9 9 10 10
21 20 20 19 18 18 17 16 16 15 14 14 13 12 12 11 11 10 10 10 10 10 9 9 9 9 9 9 9 8 8 8 8 8 8 8 8 8 8 8 8 9 9
21 20 20 19 18 18 17 16 16 15 14 14 13 12 12 11 11 10 10 10 10 10 9 9 9 9 9 9 9 8 8 8 8 8 8 8 8 8 8 8 9 9 9
22 21 20 19 18 18 17 17 16 15 14 13 13 12 12 11 11 10 10 10 10 9 9 9 9 9 9 9 9 8 8 8 8 8 8 8 8 8 8 8 8 8 8
22 21 20 20 19 18 18 17 16 15 14 13 13 12 12 11 11 10 10 10 10 9 9 9 9 9 9 9 9 9 8 8 8 8 8 8 8 8 7 7 7 8 8
22 21 21 20 19 18 18 17 16 15 14 13 13 12 12 11 11 10 10 10 9 9 9 9 9 9 9 9 9 8 8 8 8 8 8 8 8 8 7 7 7 7 7
22 21 21 20 19 18 18 17 16 15 14 14 13 12 12 11 11 10 10 10 9 9 9 9 9 9 9 9 9 8 8 8 8 8 8 8 7 7 7 7 7 7 7
22 21 21 20 19 19 18 17 16 15 14 14 13 12 12 11 11 10 10 10 9 9 9 9 9 9 9 9 9 8 8 8 8 8 8 8 8 7 7 7 6 7 7
22 21 21 20 19 19 18 17 16 16 15 14 13 12 12 11 11 10 10 10 9 9 9 9 9 9 9 9 9 8 8 8 8 8 8 8 8 7 7 7 6 6 7
22 21 21 20 19 19 18 17 17 16 14 14 13 13 12 11 11 10 10 9 9 9 9 9 9 9 9 9 9 8 8 8 7 7 8 8 7 7 7 7 7 7 6
21 20 20 20 19 19 18 18 17 15 15 14 14 13 12 11 11 10 10 9 9 9 9 9 9 10 9 9 8 8 8 8 8 7 7 7 7 7 7 7 7 6 6
20 19 19 19 18 18 18 18 16 15 15 14 14 13 12 12 11 10 10 10 10 10 9 9 9 9 9 9 8 8 8 7 7 7 7 7 7 7 7 6 6 6 6
18 18 18 18 18 18 18 17 16 15 15 14 14 13 12 11 11 10 10 10 10 9 9 9 9 9 9 9 8 8 8 7 7 7 7 7 7 7 7 7 7 7 6
17 17 17 17 16 16 16 16 16 15 15 14 13 13 12 12 11 11 11 10 10 10 9 9 9 9 9 9 8 8 8 7 7 7 7 7 7 7 7 7 7 7 7
Wind_Speed
8 8 9 9 8 8 8 7 7 6 4 3 2 2 2 3 3 4 4 5 6 6 6 7 5 6 6 6 8 7 8 7 6 8 9 9 11 11 10 10 10 12 15
9 9 10 10 9 9 9 8 8 7 6 3 2 2 3 4 4 4 3 4 5 7 6 6 8 6 6 7 7 7 8 8 6 7 9 8 7 6 7 7 8 10 9
10 10 11 10 10 10 10 9 8 7 7 5 4 3 3 5 4 4 4 4 6 6 6 7 7 7 8 7 7 8 9 8 8 6 6 7 6 6 4 5 6 6 6
10 10 11 11 11 11 10 9 9 8 7 7 6 6 6 7 6 6 5 6 6 6 6 6 6 7 8 6 8 6 7 8 9 6 5 6 7 6 6 6 4 5 6
12 12 12 11 11 10 9 9 9 8 7 7 6 6 7 6 6 6 6 7 6 5 6 6 6 6 7 6 7 7 8 8 8 8 7 7 6 8 8 9 8 7 6
11 11 11 10 10 9 9 8 8 7 7 7 6 6 6 7 7 8 8 7 6 5 5 6 6 7 7 7 7 7 8 7 8 9 9 9 9 8 8 10 10 9 7
11 11 11 11 10 9 8 7 7 6 6 7 6 6 6 7 8 8 7 7 7 6 5 6 6 7 7 7 8 8 8 9 9 9 9 9 9 9 9 10 11 11 9
10 10 9 9 8 8 7 7 6 6 6 6 6 6 6 7 7 6 8 8 8 8 7 8 8 8 8 9 8 9 9 8 9 10 10 10 10 10 9 10 11 12 10
9 8 8 8 7 7 7 6 6 6 6 6 6 6 7 7 8 8 9 8 7 8 8 9 9 9 9 9 10 10 9 9 10 11 10 10 10 10 10 10 10 11 12
9 8 8 8 7 7 7 6 6 6 6 6 7 6 7 7 8 9 9 9 10 9 10 10 10 10 10 10 10 11 10 10 10 10 11 10 11 10 9 10 10 11 12
9 8 8 8 8 7 7 7 6 6 7 7 7 7 8 8 8 8 9 9 10 10 10 11 11 11 11 11 10 11 11 12 12 12 12 12 12 11 11 10 10 11 11
8 9 9 9 8 8 7 7 7 7 7 7 7 8 8 8 9 10 10 10 10 10 11 11 11 12 12 11 11 12 12 12 13 13 13 13 11 12 12 11 12 12 11
9 9 9 9 9 8 7 7 7 7 7 7 8 8 9 9 9 10 10 10 10 11 11 11 12 12 12 12 12 12 13 13 13 13 13 13 13 13 12 12 13 12 12
10 10 10 9 9 8 7 7 7 6 7 7 8 9 9 9 10 10 10 10 11 11 12 12 12 12 12 13 13 13 13 13 13 13 14 14 14 14 14 13 13 13 13
11 11 10 9 9 9 8 7 7 7 7 8 9 9 9 9 10 10 11 11 11 12 12 12 12 13 12 12 12 12 13 13 14 14 14 14 14 13 13 13 13 12 12
11 11 11 10 10 9 9 8 7 7 7 8 9 9 9 9 10 10 11 11 12 12 12 12 13 13 12 6 5 11 14 14 15 15 14 14 14 15 17 18 18 17 15
10 10 11 10 10 9 9 8 7 7 7 8 9 9 9 10 10 11 11 12 12 12 12 12 13 13 13 9 10 12 13 15 15 15 14 13 13 12 14 16 20 21 22
10 10 10 10 10 9 9 8 7 7 8 8 9 9 9 10 10 11 11 12 12 12 12 12 13 13 13 10 12 11 14 16 16 16 15 15 15 14 13 14 14 15 17
10 10 10 10 10 10 9 8 8 8 8 9 9 9 9 10 10 11 11 11 11 12 12 13 13 14 14 11 12 12 12 13 15 15 15 15 15 11 9 14 15 16 15
11 11 10 10 10 10 9 9 9 9 9 9 9 9 9 10 11 12 12 11 11 12 13 13 13 14 14 11 10 11 11 13 13 13 13 13 15 11 8 13 15 16 15
12 12 12 12 11 11 10 10 10 10 9 8 8 9 9 10 11 11 11 12 12 12 13 14 14 14 14 13 12 12 11 12 12 12 11 10 10 12 12 13 14 15 14
12 13 12 12 11 11 11 11 11 9 8 8 9 9 10 10 10 11 11 12 12 13 13 13 13 12 11 11 10 11 14 13 13 13 12 9 5 9 11 12 14 14 12
11 11 13 12 11 12 12 12 11 8 8 9 9 10 10 10 10 11 12 12 11 11 11 11 12 11 10 8 11 13 14 14 12 12 12 11 8 9 12 17 17 14 13
10 10 12 12 12 12 12 12 9 8 9 9 10 10 10 11 11 10 10 11 11 11 11 11 11 12 11 10 9 7 8 11 12 12 12 14 16 15 14 11 12 13 13
6 7 9 11 11 10 10 9 9 9 10 10 10 11 11 11 10 11 10 11 11 10 11 12 12 12 13 9 7 9 11 10 8 9 10 11 11 11 11 11 11 11 12
6 5 6 7 7 7 7 8 9 10 11 10 11 10 10 9 10 10 11 12 14 13 15 17 16 14 15 16 15 13 13 13 10 8 11 11 11 11 11 10 10 11 11
Wind_Direction
168 171 173 176 178 181 185 187 189 178 193 207 244 277 309 319 331 341 3 342 340 340 325 317 315 298 296 302 296 295 291 285 302 296 289 275 255 246 244 241 243 240 235
175 180 186 189 194 195 199 201 205 203 212 212 246 287 312 307 321 329 338 327 332 326 319 330 308 308 302 285 288 285 292 296 296 301 304 296 276 241 244 238 235 242 242
185 188 196 202 205 208 211 215 216 215 222 224 240 251 256 267 283 316 313 323 320 316 320 315 314 315 298 301 303 290 280 289 290 287 297 301 305 321 268 258 251 251 252
195 199 203 208 213 216 217 220 221 223 223 225 246 269 289 302 317 312 316 313 300 304 307 308 309 307 304 307 293 300 295 282 283 278 267 276 301 297 296 283 275 274 268
200 206 212 216 220 221 222 222 224 226 224 229 236 253 275 294 300 305 300 295 295 289 295 302 305 302 297 307 308 304 290 285 281 287 283 275 267 262 276 288 295 294 287
205 211 217 219 223 223 224 225 221 223 221 225 234 249 275 287 296 297 300 295 293 290 290 292 296 293 300 300 293 293 281 284 291 288 284 280 277 276 279 283 287 290 291
207 211 216 218 220 222 222 220 215 217 216 222 232 244 261 272 273 282 290 293 296 296 300 300 293 294 294 289 287 281 285 282 279 276 278 280 279 281 281 282 286 288 287
209 214 217 216 217 214 208 205 208 216 217 225 236 246 255 269 280 283 291 292 292 298 306 291 285 285 285 284 282 279 273 271 273 273 275 278 274 276 274 275 283 286 284
208 210 207 205 200 196 193 198 205 218 226 237 241 248 255 270 282 284 273 279 286 289 289 287 283 282 282 280 278 274 277 275 271 272 265 262 272 269 270 271 271 276 282
204 201 194 190 187 185 184 195 209 224 236 244 251 255 259 264 268 276 286 287 286 286 286 283 282 281 280 277 272 272 266 267 267 268 275 275 273 275 272 268 266 264 269
199 189 185 183 183 186 192 203 214 228 240 250 254 263 267 271 271 272 275 279 282 285 282 281 282 281 281 277 272 270 274 268 268 267 265 263 268 272 274 269 265 262 262
192 184 182 184 191 200 206 214 227 237 246 254 257 260 265 269 273 277 280 280 279 280 282 282 281 281 281 277 272 271 271 269 267 266 266 265 264 261 264 269 268 266 266
190 186 188 195 202 209 217 227 235 247 254 256 258 262 266 270 274 281 283 282 280 280 282 282 280 281 281 278 274 271 270 268 268 267 265 264 264 263 262 262 264 265 262
193 196 198 203 208 212 218 230 243 252 258 262 264 266 270 276 280 283 283 281 281 281 282 282 281 281 279 276 273 272 270 269 268 266 264 263 262 260 260 259 258 262 266
202 205 208 207 209 213 219 229 241 248 255 262 267 268 272 276 280 282 282 283 282 282 283 282 281 280 278 273 276 279 277 275 273 269 264 260 258 264 265 266 264 260 257
213 212 213 214 213 215 221 228 237 245 249 259 268 272 276 278 280 283 284 284 284 284 283 281 281 280 279 291 285 276 280 278 274 272 269 265 252 244 239 248 258 265 265
222 219 217 217 216 216 218 225 234 242 249 258 266 272 275 278 282 286 288 287 288 286 283 281 280 279 278 265 252 251 269 273 272 271 271 269 266 251 251 240 234 243 247
227 222 221 216 213 213 212 219 229 238 251 259 267 272 275 280 284 286 287 288 288 287 284 283 281 280 276 256 245 247 263 268 268 267 266 266 267 263 259 261 254 248 242
228 224 222 218 211 210 209 214 229 241 252 261 268 273 277 281 283 285 288 289 288 286 284 282 281 280 278 258 240 244 272 268 268 267 265 264 264 259 241 256 260 260 256
225 219 216 213 204 205 204 214 231 242 252 263 269 274 276 277 280 285 288 289 286 283 284 285 284 282 280 270 238 233 267 272 273 270 265 252 247 259 237 252 256 257 256
224 217 214 212 208 200 200 215 232 243 252 261 267 269 271 272 274 280 284 285 284 286 286 286 284 279 275 270 246 230 257 272 278 278 276 271 211 219 228 241 254 259 267
229 218 213 215 207 199 202 218 231 241 250 256 261 265 268 272 277 278 280 282 283 283 282 282 283 280 272 260 252 225 234 260 273 276 276 278 194 215 229 239 248 251 255
242 228 221 218 208 201 206 223 230 232 241 250 258 264 268 269 271 274 279 280 278 279 286 289 289 290 288 272 229 228 233 237 252 270 281 289 273 255 248 240 239 239 240
255 240 230 226 217 209 211 222 230 228 233 246 257 263 266 267 267 270 274 278 282 284 286 287 289 292 291 288 286 273 253 235 245 262 263 243 244 247 257 256 232 232 236
284 258 239 234 229 216 215 219 222 223 230 241 252 261 265 267 271 270 271 275 278 283 285 290 292 293 292 307 342 308 294 295 302 302 283 274 266 254 246 244 240 237 231
330 299 268 250 238 223 220 220 222 223 229 240 248 256 261 264 267 273 274 246 242 253 247 250 261 278 277 287 291 282 273 270 271 271 267 268 266 263 258 251 244 238 234
Height
1544 1546 1547 1549 1550 1551 1552 1553 1555 1555 1555 1555 1556 1555 1555 1553 1552 1549 1546 1544 1542 1541 1539 1540 1538 1537 1537 1536 1536 1535 1534 1532 1531 1529 1527 1525 1523 1523 1522 1522 1523 1524 1525
1543 1545 1547 1548 1550 1551 1551 1552 1553 1554 1554 1554 1553 1553 1552 1551 1549 1547 1544 1542 1540 1539 1539 1536 1536 1535 1534 1533 1532 1531 1531 1530 1529 1527 1525 1522 1521 1519 1519 1518 1518 1518 1519
1542 1544 1546 1547 1549 1550 1550 1551 1552 1552 1552 1552 1552 1551 1549 1549 1548 1546 1544 1541 1539 1537 1535 1534 1533 1532 1531 1531 1529 1528 1528 1527 1526 1525 1525 1522 1519 1518 1517 1516 1515 1514 1514
1540 1543 1544 1546 1547 1548 1549 1549 1549 1550 1549 1549 1549 1549 1549 1548 1546 1544 1542 1539 1537 1535 1533 1532 1530 1529 1529 1527 1526 1526 1524 1524 1524 1523 1522 1521 1520 1518 1515 1514 1513 1512 1511
1538 1540 1542 1544 1545 1546 1547 1547 1547 1547 1547 1546 1546 1546 1546 1545 1543 1541 1539 1537 1536 1533 1531 1529 1528 1526 1526 1524 1522 1521 1521 1521 1520 1520 1519 1518 1517 1516 1515 1512 1511 1510 1509
1536 1538 1540 1541 1542 1543 1544 1544 1544 1544 1544 1543 1543 1542 1542 1540 1539 1538 1537 1535 1534 1532 1530 1527 1525 1524 1523 1521 1519 1518 1518 1517 1516 1515 1516 1515 1514 1513 1512 1510 1508 1507 1506
1533 1535 1537 1538 1539 1540 1541 1542 1541 1541 1541 1540 1540 1539 1538 1537 1535 1534 1534 1532 1531 1530 1527 1525 1522 1521 1519 1517 1516 1515 1514 1513 1512 1511 1511 1511 1511 1510 1509 1508 1505 1503 1502
1529 1531 1533 1535 1536 1537 1538 1538 1539 1538 1538 1537 1537 1535 1534 1534 1534 1532 1530 1529 1527 1526 1523 1521 1519 1517 1516 1514 1513 1512 1511 1510 1508 1508 1507 1506 1506 1506 1505 1504 1503 1500 1498
1526 1528 1530 1532 1533 1534 1535 1536 1535 1535 1535 1534 1533 1532 1531 1530 1529 1527 1526 1525 1523 1522 1520 1517 1515 1514 1512 1510 1508 1508 1507 1506 1504 1504 1503 1502 1502 1501 1500 1500 1499 1499 1496
1523 1525 1527 1529 1530 1531 1532 1532 1532 1532 1531 1530 1529 1529 1527 1526 1524 1523 1522 1520 1518 1517 1515 1513 1511 1509 1508 1506 1504 1503 1503 1501 1500 1499 1498 1497 1497 1497 1496 1495 1494 1494 1493
1519 1522 1524 1526 1527 1528 1529 1529 1528 1528 1527 1526 1525 1524 1523 1522 1521 1519 1518 1516 1514 1512 1510 1508 1506 1505 1503 1502 1500 1499 1498 1496 1495 1494 1494 1492 1491 1491 1491 1490 1490 1489 1488
1516 1519 1521 1523 1524 1525 1526 1525 1525 1524 1524 1523 1521 1520 1519 1518 1517 1516 1514 1512 1509 1507 1506 1504 1502 1500 1498 1497 1495 1493 1493 1491 1490 1489 1489 1488 1487 1486 1485 1485 1484 1484 1483
1514 1516 1518 1519 1520 1521 1522 1522 1522 1521 1520 1519 1518 1516 1515 1514 1513 1511 1509 1507 1505 1503 1501 1499 1497 1495 1493 1491 1490 1488 1487 1486 1485 1484 1483 1482 1481 1480 1480 1479 1479 1479 1478
1510 1512 1514 1515 1516 1517 1518 1518 1518 1517 1516 1515 1514 1513 1511 1510 1508 1506 1504 1502 1500 1498 1496 1494 1491 1489 1487 1486 1484 1483 1482 1480 1479 1478 1477 1476 1475 1475 1474 1474 1473 1473 1473
1507 1508 1510 1511 1512 1513 1513 1513 1513 1513 1512 1511 1510 1509 1508 1506 1504 1502 1499 1497 1495 1493 1491 1488 1486 1484 1482 1481 1480 1478 1476 1475 1473 1472 1471 1470 1469 1468 1468 1468 1468 1468 1468
1502 1504 1506 1507 1508 1509 1509 1510 1509 1509 1508 1507 1506 1505 1503 1501 1499 1497 1495 1492 1490 1487 1485 1483 1480 1478 1477 1475 1473 1471 1470 1468 1467 1465 1464 1463 1462 1460 1460 1459 1460 1461 1461
1498 1500 1502 1503 1504 1505 1505 1505 1505 1504 1503 1502 1501 1500 1499 1497 1495 1493 1490 1488 1485 1482 1480 1477 1475 1472 1471 1469 1467 1465 1463 1462 1460 1459 1458 1457 1457 1455 1454 1453 1452 1452 1452
1494 1496 1497 1498 1499 1500 1500 1500 1501 1500 1499 1498 1497 1496 1494 1492 1490 1488 1485 1483 1480 1477 1474 1472 1469 1467 1465 1463 1461 1459 1457 1455 1453 1452 1451 1450 1449 1449 1448 1447 1447 1446 1446
1490 1492 1493 1494 1495 1495 1496 1496 1496 1496 1495 1494 1493 1492 1490 1488 1485 1483 1480 1477 1474 1471 1469 1466 1464 1461 1458 1457 1455 1453 1450 1449 1447 1446 1444 1443 1442 1441 1440 1440 1440 1439 1440
1485 1487 1488 1489 1489 1490 1490 1491 1491 1491 1491 1490 1489 1487 1485 1482 1480 1478 1475 1472 1469 1466 1463 1461 1458 1455 1452 1451 1448 1446 1444 1443 1441 1439 1437 1436 1434 1434 1433 1433 1433 1432 1432
1480 1481 1482 1483 1484 1484 1485 1485 1486 1486 1485 1484 1483 1481 1479 1477 1475 1472 1469 1467 1464 1461 1457 1454 1451 1448 1446 1444 1442 1440 1438 1437 1435 1433 1431 1430 1428 1427 1426 1425 1425 1425 1426
1475 1476 1476 1477 1478 1478 1479 1479 1480 1480 1480 1479 1477 1475 1474 1472 1470 1467 1464 1461 1458 1455 1452 1448 1445 1443 1441 1438 1436 1434 1432 1430 1428 1426 1425 1424 1422 1420 1419 1418 1417 1417 1418
1470 1470 1470 1471 1471 1472 1473 1474 1475 1475 1474 1473 1472 1470 1468 1466 1464 1462 1459 1456 1454 1450 1447 1444 1441 1438 1436 1433 1430 1428 1426 1423 1421 1419 1418 1416 1415 1413 1411 1410 1410 1410 1410
1464 1464 1464 1465 1465 1466 1467 1468 1469 1469 1468 1467 1466 1465 1463 1461 1459 1456 1454 1451 1449 1446 1442 1439 1436 1433 1430 1428 1425 1423 1420 1417 1415 1413 1411 1409 1407 1405 1404 1403 1402 1402 1402
1459 1458 1458 1458 1460 1461 1462 1462 1463 1463 1462 1461 1460 1459 1457 1455 1452 1450 1447 1445 1442 1440 1436 1434 1431 1428 1425 1422 1419 1417 1414 1412 1410 1407 1405 1403 1401 1399 1397 1396 1396 1395 1395
1456 1455 1454 1454 1455 1455 1456 1456 1457 1457 1455 1454 1453 1453 1451 1449 1447 1444 1442 1438 1435 1432 1429 1426 1424 1420 1418 1415 1412 1410 1407 1405 1403 1400 1398 1396 1394 1393 1391 1390 1389 1388 1388